Regional Weather Roundup
Issued by NWS

Home | Current Version | Previous Version | Text Only | Print | Product List | Glossary Off
Versions: 1 2 3 4 5 6 7 8 9 10 11 12 13 14 15 16 17 18 19 20 21 22 23 24 25 26 27 28 29 30 31 32 33 34 35 36 37 38 39 40 41 42 43 44 45 46 47 48 49 50

000
ASUS45 KABQ 051110
RWRNM
NEW MEXICO REGIONAL WEATHER ROUNDUP
NATIONAL WEATHER SERVICE ALBUQUERQUE NM
500 AM MDT SUN JUL 05 2015

NOTE: "FAIR" MEANS FEW OR NO CLOUDS BELOW 12,000 FEET AGL WITH NO
       SIGNIFICANT WEATHER OR OBSTRUCTIONS TO VISION.

      THIS PRODUCT IS RELEASED AS TWO VERSIONS.  ONE VERSION NEAR
      THE TOP OF THE HOUR CONTAINING PRELIMINARY DATA FROM ALBUQUERQUE
      AND OTHER STATIONS.  A FINAL VERSION WITH ADDITIONAL DATA IS
      ISSUED ABOUT 10 MINUTES AFTER THE HOUR.

NMZ501-503-504-510>518-051200-
NORTHWEST PLATEAU/NORTHCENTRAL MOUNTAINS

CITY           SKY/WX    TMP DP  RH WIND       PRES   REMARKS
FARMINGTON     MOCLDY    64  59  83 CALM      30.14S
LOS ALAMOS     PTCLDY    63  51  64 CALM      30.26R
SANTA FE       CLEAR     59  53  80 N6        30.19R
TAOS           CLEAR     54  39  58 CALM      30.25S
ANGEL FIRE     FAIR      45  44  98 CALM      30.33S

$$
NMZ402-403-502-505>509-051200-
WESTCENTRAL MOUNTAINS/SOUTHWEST MOUNTAINS

CITY           SKY/WX    TMP DP  RH WIND       PRES   REMARKS
GALLUP         CLOUDY    62  55  77 CALM      30.22S
GRANTS         CLOUDY    59  57  94 W5        30.24S
SILVER CITY      N/A     64  63  94 N8        30.16F

$$
NMZ407-409-411-412-051200-
SOUTHERN DESERTS

CITY           SKY/WX    TMP DP  RH WIND       PRES   REMARKS
LORDSBURG      FAIR      70  61  73 W3        30.08S
DEMING         CLOUDY    68  66  93 SW3       30.08S
LAS CRUCES     MOCLDY    68  64  86 SW6       30.08S
HOLLOMAN AFB   CLEAR     72  59  63 NE5       30.03R
ALAMOGORDO     CLEAR     68  57  68 SE5       30.06R
T OR C         MOCLDY    68  64  87 S3        30.09S

$$
NMZ519>523-051200-
CENTRAL VALLEYS/CENTRAL HIGHLANDS

CITY           SKY/WX    TMP DP  RH WIND       PRES   REMARKS
ALBUQUERQUE    MOCLDY    66  58  75 SE6       30.14S
DOUBLE EAGLE   MOCLDY    60  56  87 CALM      30.18R
MORIARTY ARPT    N/A     55  51  87 CALM      30.20R
CLINES CORNERS PTCLDY    58  51  78 W9        30.22S
BELEN          FAIR      66  56  69 CALM      30.13F
SOCORRO        FAIR      66  61  84 CALM      30.11F

$$
NMZ524>526-539-540-051200-
SOUTHCENTRAL MOUNTAINS

CITY           SKY/WX    TMP DP  RH WIND       PRES   REMARKS
RUIDOSO        MOCLDY    59  54  82 W5        30.25R

$$
NMZ527>531-051200-
NORTHEAST HIGHLANDS/NORTHEAST PLAINS

CITY           SKY/WX    TMP DP  RH WIND       PRES   REMARKS
LAS VEGAS      CLEAR     56  51  84 SW3       30.20R
RATON          PTCLDY    54  52  93 NE5       30.14R
CLAYTON        CLEAR     65  56  72 SW9       30.05R

$$
NMZ532>537-051200-
EASTCENTRAL PLAINS

CITY           SKY/WX    TMP DP  RH WIND       PRES   REMARKS
TUCUMCARI      CLEAR     73  60  63 SW15      30.02S
CANNON AFB     CLEAR     65  62  89 S6        30.07S
CLOVIS AIRPORT CLEAR     63  57  82 SW6         N/A

$$
NMZ028-029-538-051200-
SOUTHEAST PLAINS

CITY           SKY/WX    TMP DP  RH WIND       PRES   REMARKS
ROSWELL        CLEAR     67  59  75 SW3       30.02R
ARTESIA        PTCLDY    70  63  78 S7        30.03S
CARLSBAD       PTCLDY    70  60  70 S5        30.01R
HOBBS          CLEAR     66  66 100 CALM      30.06S


$$


USA.gov is the U.S. government's official web portal to all federal, state and local government web resources and services.